DW6399 Weather Reports


Display with metric or nautical units.
time (UTC)temp
F
wind
direction
speed
MPH
gust
MPH
rain 1hr
in
rain 24hr
in
rain mn
in
humidity
%
barometer
mb
20260906152704 47 319 11.0 22.0 0.00 0.00 0.00 72 1008.2
20260906151804 47 325 11.0 22.0 0.00 0.00 0.00 73 1008.0
20260906150904 47 328 12.0 19.0 0.00 0.00 0.00 74 1007.9
20260906150004 46 327 11.0 19.0 0.00 0.00 0.00 75 1007.8
20260906145425 46 327 11.0 19.0 0.00 0.00 0.00 76 1007.8
20260906144504 46 329 9.0 17.0 0.00 0.00 0.00 77 1007.8
20260906143604 46 327 10.0 18.0 0.00 0.00 0.00 78 1007.8
20260906142704 46 326 9.0 17.0 0.00 0.00 0.00 78 1007.6
20260906141804 46 330 9.0 16.0 0.00 0.00 0.00 80 1007.6
20260906140904 46 329 12.0 22.0 0.00 0.00 0.00 79 1007.5
20260906140006 46 321 9.0 14.0 0.00 0.00 0.00 81 1007.3
20260906135404 46 322 10.0 15.0 0.00 0.00 0.00 80 1007.2
20260906134504 46 320 11.0 18.0 0.00 0.00 0.00 80 1007.1
20260906133604 46 322 11.0 17.0 0.00 0.00 0.00 80 1007.0
20260906132704 46 321 11.0 23.0 0.00 0.00 0.00 79 1006.9
20260906131804 46 328 14.0 23.0 0.00 0.00 0.00 79 1006.7
20260906130904 46 319 13.0 23.0 0.00 0.00 0.00 79 1006.7
20260906130004 46 325 11.0 20.0 0.00 0.00 0.00 80 1006.6
20260906125404 46 326 12.0 20.0 0.00 0.00 0.00 80 1006.5
20260906124504 46 329 12.0 19.0 0.00 0.00 0.00 80 1006.4
20260906123604 46 319 11.0 20.0 0.00 0.00 0.00 80 1006.3
20260906122704 46 317 12.0 20.0 0.00 0.00 0.00 80 1006.1
20260906121804 46 324 12.0 21.0 0.00 0.00 0.00 79 1006.1
20260906120904 46 328 13.0 21.0 0.00 0.00 0.00 80 1006.0
20260906120004 46 328 13.0 23.0 0.00 0.00 0.00 81 1006.1
20260906115404 46 326 11.0 20.0 0.00 0.00 0.00 81 1006.0
20260906114504 46 325 11.0 22.0 0.00 0.00 0.00 80 1005.8
20260906113604 46 329 13.0 23.0 0.00 0.00 0.00 80 1005.7
20260906112704 46 329 11.0 17.0 0.00 0.00 0.00 80 1005.6
20260906111804 46 327 11.0 17.0 0.00 0.00 0.00 80 1005.5
20260906110904 46 326 12.0 21.0 0.00 0.00 0.00 80 1005.3
20260906110004 45 328 11.0 18.0 0.00 0.00 0.00 80 1005.1
20260906105404 45 327 12.0 19.0 0.00 0.00 0.00 81 1005.0
20260906104504 45 322 13.0 21.0 0.00 0.00 0.00 80 1004.8
20260906103604 45 323 12.0 19.0 0.00 0.00 0.00 81 1004.7
20260906102704 45 325 12.0 20.0 0.00 0.00 0.00 80 1004.7
20260906101804 45 327 10.0 17.0 0.00 0.00 0.00 81 1004.7
20260906100904 45 330 12.0 20.0 0.00 0.00 0.00 80 1004.5
20260906100004 45 328 11.0 16.0 0.00 0.00 0.00 81 1004.3
20260906095404 45 323 12.0 16.0 0.00 0.00 0.00 80 1004.2
20260906094504 45 322 13.0 21.0 0.00 0.01 0.00 80 1004.2
20260906093625 45 326 11.0 17.0 0.00 0.02 0.00 80 1004.0
20260906092725 45 326 10.0 18.0 0.00 0.02 0.00 80 1004.1
20260906091804 45 326 10.0 20.0 0.00 0.02 0.00 81 1004.0
20260906090904 45 328 10.0 18.0 0.00 0.02 0.00 82 1003.9
20260906090004 44 325 10.0 17.0 0.00 0.02 0.00 82 1003.8
20260906085404 44 327 11.0 19.0 0.00 0.02 0.00 82 1003.7
20260906084525 44 328 11.0 20.0 0.00 0.02 0.00 82 1003.7
20260906083604 44 327 12.0 19.0 0.00 0.02 0.00 81 1003.5
20260906082704 44 333 10.0 19.0 0.00 0.02 0.00 82 1003.4
20260906081804 44 331 13.0 22.0 0.00 0.02 0.00 81 1003.4
20260906080904 44 330 13.0 19.0 0.00 0.02 0.00 82 1003.2
20260906080004 44 334 10.0 21.0 0.00 0.02 0.00 82 1003.1
20260906075425 44 338 9.0 17.0 0.00 0.02 0.00 82 1003.0
20260906074504 44 331 8.0 16.0 0.00 0.02 0.00 82 1002.9
20260906073604 44 331 10.0 20.0 0.00 0.02 0.00 82 1002.8
20260906072725 44 332 10.0 16.0 0.00 0.02 0.00 83 1002.7
20260906071825 44 329 9.0 18.0 0.00 0.02 0.00 83 1002.5
20260906070904 44 338 7.0 15.0 0.00 0.03 0.00 83 1002.4
20260906070025 44 338 9.0 19.0 0.00 0.04 0.00 82 1002.3
20260906065404 44 333 10.0 24.0 0.00 0.04 0.00 82 1002.3
20260906064504 44 330 10.0 17.0 0.00 0.05 0.00 83 1002.2
20260906063604 44 335 8.0 20.0 0.00 0.05 0.00 82 1002.0
20260906062704 43 335 9.0 20.0 0.00 0.06 0.00 83 1002.0
20260906061804 43 331 13.0 21.0 0.00 0.08 0.00 82 1001.8
20260906060925 43 337 11.0 22.0 0.00 0.10 0.00 83 1001.8
20260906060004 43 339 12.0 26.0 0.00 0.11 0.00 82 1001.7
20260906055404 43 335 11.0 21.0 0.00 0.11 0.00 82 1001.4
20260906054504 43 332 10.0 17.0 0.00 0.11 0.00 82 1001.5
20260906053604 43 335 10.0 19.0 0.00 0.11 0.00 82 1001.4
20260906052704 43 332 10.0 19.0 0.00 0.11 0.00 82 1001.3
20260906051804 42 335 11.0 20.0 0.00 0.12 0.00 82 1001.2
20260906050925 42 333 13.0 21.0 0.00 0.12 0.00 82 1001.2
20260906050004 42 329 12.0 24.0 0.00 0.12 0.00 82 1001.2
20260906045425 42 336 11.0 21.0 0.00 0.12 0.00 82 1001.2
20260906044504 42 331 13.0 24.0 0.00 0.12 0.00 82 1001.0
20260906043604 42 337 9.0 19.0 0.00 0.12 0.00 83 1000.9
20260906042704 42 331 10.0 21.0 0.00 0.12 0.00 83 1000.8
20260906041804 42 329 9.0 18.0 0.00 0.12 0.00 83 1000.8
20260906040904 42 335 9.0 19.0 0.00 0.12 0.00 83 1000.7
20260906040025 42 335 10.0 19.0 0.00 0.12 0.00 82 1000.6
20260906035425 42 333 11.0 21.0 0.00 0.12 0.00 83 1000.6
20260906034504 43 333 11.0 22.0 0.00 0.12 0.00 82 1000.5
20260906033604 43 334 11.0 26.0 0.00 0.12 0.00 82 1000.4
20260906032704 43 329 11.0 21.0 0.00 0.12 0.00 83 1000.4
20260906031804 43 330 10.0 17.0 0.00 0.12 0.00 83 1000.3
20260906030904 43 327 10.0 19.0 0.00 0.12 0.00 82 1000.1
20260906030004 43 325 12.0 22.0 0.00 0.12 0.00 82 1000.0
20260906025425 43 324 12.0 19.0 0.00 0.12 0.00 82 1000.0
20260906024504 43 327 11.0 18.0 0.00 0.12 0.00 83 999.9
20260906023604 43 324 12.0 18.0 0.00 0.12 0.00 83 999.9
20260906022704 43 324 11.0 19.0 0.00 0.12 0.00 83 999.9
20260906021804 43 327 11.0 19.0 0.00 0.12 0.00 83 999.8
20260906020904 43 329 10.0 17.0 0.00 0.12 0.00 84 999.7
20260906020025 43 326 8.0 12.0 0.00 0.12 0.00 85 999.6
20260906015404 43 324 8.0 13.0 0.00 0.12 0.00 85 999.5
20260906014504 43 325 9.0 14.0 0.00 0.12 0.00 86 999.5
20260906013604 43 326 7.0 12.0 0.00 0.12 0.00 86 999.4
20260906012704 44 328 10.0 18.0 0.00 0.12 0.00 85 999.4
20260906011825 44 332 8.0 15.0 0.00 0.12 0.00 86 999.3
20260906010904 44 326 8.0 14.0 0.00 0.12 0.00 86 999.3
20260906010025 44 323 9.0 14.0 0.00 0.12 0.00 86 999.2
20260906005404 44 324 8.0 14.0 0.00 0.12 0.00 86 999.2
20260906004504 43 318 9.0 13.0 0.00 0.12 0.00 86 999.1
20260906003604 43 318 8.0 13.0 0.00 0.12 0.00 86 999.0
20260906002703 43 314 7.0 13.0 0.00 0.12 0.00 87 999.0
20260906001825 43 314 7.0 11.0 0.00 0.12 0.00 88 999.0
20260906000904 42 317 5.0 9.0 0.00 0.12 0.00 88 998.9
20260906000004 42 320 5.0 9.0 0.00 0.12 0.00 88 998.8
20260905235424 42 320 6.0 12.0 0.00 0.12 0.00 88 998.8
20260905234504 42 318 7.0 12.0 0.00 0.12 0.00 88 998.8
20260905233604 42 319 7.0 12.0 0.00 0.12 0.00 87 998.7
20260905232704 42 316 6.0 12.0 0.00 0.12 0.00 87 998.8
20260905231804 42 311 5.0 9.0 0.00 0.12 0.00 86 998.8
20260905230925 43 313 5.0 8.0 0.00 0.12 0.00 86 998.8
20260905230004 43 314 4.0 9.0 0.00 0.12 0.00 85 998.7
20260905225404 43 319 5.0 11.0 0.00 0.12 0.00 85 998.7
20260905224504 43 323 6.0 12.0 0.00 0.12 0.00 84 998.8
20260905223603 44 326 8.0 14.0 0.00 0.12 0.00 84 998.8
20260905222704 44 326 8.0 13.0 0.00 0.12 0.00 83 998.7
20260905221803 44 328 8.0 12.0 0.00 0.12 0.00 82 998.7
20260905220904 44 329 7.0 12.0 0.00 0.12 0.00 82 998.5
20260905220025 44 328 6.0 11.0 0.00 0.12 0.00 83 998.5
20260905215425 44 327 6.0 13.0 0.00 0.12 0.00 83 998.5
20260905214504 44 329 8.0 13.0 0.00 0.12 0.00 83 998.5
20260905213604 44 329 9.0 16.0 0.00 0.12 0.00 83 998.5
20260905212704 44 334 8.0 15.0 0.00 0.12 0.00 84 998.5
20260905211804 45 330 8.0 16.0 0.00 0.12 0.00 84 998.5
20260905210924 45 333 7.0 13.0 0.00 0.12 0.00 85 998.4
20260905210026 46 327 8.0 15.0 0.00 0.12 0.00 85 998.3
20260905205403 46 330 8.0 15.0 0.00 0.12 0.12 85 998.3
20260905204524 46 331 9.0 16.0 0.00 0.12 0.12 86 998.3
20260905203625 46 327 8.0 12.0 0.00 0.12 0.12 87 998.2
20260905202704 46 332 8.0 14.0 0.00 0.12 0.12 87 998.3
20260905201803 46 328 9.0 14.0 0.00 0.12 0.12 88 998.2
20260905200924 46 329 10.0 15.0 0.00 0.12 0.12 88 998.1
20260905200025 46 326 9.0 16.0 0.00 0.12 0.12 88 998.1
20260905195425 46 330 8.0 14.0 0.00 0.12 0.12 88 998.0
20260905194504 46 333 8.0 14.0 0.00 0.12 0.12 88 998.0
20260905193603 46 333 6.0 12.0 0.00 0.12 0.12 88 998.0
20260905192704 46 333 7.0 15.0 0.00 0.12 0.12 88 997.9
20260905191803 46 335 8.0 16.0 0.00 0.12 0.12 88 997.9
20260905190904 46 329 11.0 17.0 0.00 0.12 0.12 88 997.9
20260905190004 46 330 10.0 16.0 0.00 0.12 0.12 87 997.9
20260905185403 47 329 8.0 14.0 0.00 0.12 0.12 87 997.9
20260905184504 47 333 9.0 15.0 0.00 0.12 0.12 86 997.9
20260905183625 47 333 8.0 13.0 0.00 0.12 0.12 86 997.8
20260905182703 47 335 9.0 14.0 0.00 0.12 0.12 86 997.6
20260905181825 47 335 8.0 15.0 0.00 0.12 0.12 86 997.5
20260905180925 47 334 8.0 18.0 0.00 0.12 0.12 86 997.5
20260905180004 47 334 8.0 18.0 0.00 0.12 0.12 86 997.5
20260905175404 47 332 9.0 20.0 0.00 0.12 0.12 87 997.4
20260905174503 48 330 9.0 17.0 0.00 0.12 0.12 87 997.3
20260905173603 48 333 9.0 17.0 0.00 0.12 0.12 87 997.2
20260905172703 48 331 10.0 15.0 0.00 0.12 0.12 87 997.1
20260905171803 48 328 9.0 17.0 0.00 0.12 0.12 87 996.9
20260905170904 48 335 7.0 12.0 0.00 0.12 0.12 86 996.8
20260905170004 48 331 8.0 12.0 0.00 0.12 0.12 86 996.6
20260905165403 48 329 9.0 16.0 0.00 0.12 0.12 87 996.6
20260905164503 48 331 7.0 14.0 0.00 0.12 0.12 87 996.5
20260905163604 49 334 5.0 11.0 0.00 0.12 0.12 86 996.4
20260905162704 49 339 6.0 12.0 0.00 0.12 0.12 86 996.5
20260905161824 49 336 9.0 17.0 0.00 0.12 0.12 85 996.3
20260905160904 49 336 8.0 16.0 0.00 0.12 0.12 86 996.3
20260905160004 50 332 9.0 16.0 0.00 0.12 0.12 86 996.1
20260905155403 50 333 7.0 15.0 0.00 0.12 0.12 87 996.0
20260905154504 50 328 9.0 17.0 0.00 0.12 0.12 87 995.9
20260905153604 50 326 10.0 17.0 0.00 0.12 0.12 86 995.8